Home   Weather   Spa   Past weeks

Flag for Belgium Past Weather in Spa, Belgium — Yesterday and Last 2 Weeks

Now
42 °F

Passing clouds.


Feels Like: 40 °F
Forecast: 39 / 48 °F
Wind: 3 mph from Northwest

Location: Spa / La Sauveniere

Current Time: Feb 19, 2017 at 8:04:47 pm

Latest Report: Feb 19, 2017 at 7:00 pm


Visibility: 3 mi

Pressure: 30.20 "Hg

Humidity: 95%

Dew Point: 40 °F

Location of SpaLocation

Past Weather in Spa — Graph

°F

Spa Temperature Yesterday

Maximum temperature yesterday: 42 °F (at 4:00 pm)
Minimum temperature yesterday: 35 °F (at 8:00 pm)
Average temperature yesterday: 38 °F

High & Low Weather Summary for the Past Weeks

 TemperatureHumidityPressure
High56 °F (Feb 15, 3:00 pm)100% (Feb 4, 11:00 pm)30.54 "Hg (Feb 4, 11:00 pm)
Low26 °F (Feb 10, 3:00 am)44% (Feb 14, 3:00 pm)29.47 "Hg (Feb 4, 7:00 pm)
Average38 °F83%30.20 "Hg
* Reported Feb 4 7:00 pm — Feb 19 7:00 pm, Spa, Weather by CustomWeather, © 2017

Note: Actual official high and low records may vary slightly from our data, if they occured in-between our weather recording intervals... More about our weather records

Advertising

Spa Weather History for the Previous 24 Hours

Scroll right to see more
 ConditionsComfort  
Time TempWeatherWind HumidityBarometerVisibility
7:00 pm
Sun, Feb 19
42 °FPassing clouds.3 mph95%30.20 "Hg3 mi
6:00 pm43 °FLight rain. Passing clouds.5 mph86%30.19 "Hg6 mi
5:00 pm44 °FOvercast.5 mph83%30.17 "Hg9 mi
4:00 pm43 °FDrizzle. Partly sunny.5 mph82%30.17 "Hg5 mi
3:00 pm45 °FOvercast.5 mph73%30.18 "Hg12 mi
2:00 pm44 °FPartly sunny.3 mph73%30.19 "Hg12 mi
1:00 pm42 °FOvercast.5 mph75%30.21 "Hg12 mi
12:00 pm42 °FPartly sunny.5 mph76%30.24 "Hg11 mi
11:00 am41 °FPartly sunny.3 mph76%30.24 "Hg11 mi
10:00 am39 °FSunny.3 mph75%30.26 "Hg12 mi
9:00 am36 °FSunny.5 mph82%30.26 "Hg7 mi
8:00 am36 °FSunny.5 mph83%30.26 "Hg8 mi
7:00 am36 °FClear.5 mph84%30.26 "Hg8 mi
6:00 am33 °FClear.5 mph88%30.27 "HgN/A
5:00 am35 °FClear.5 mph86%30.27 "HgN/A
4:00 am34 °FClear.3 mph85%30.29 "HgN/A
3:00 am34 °FClear.5 mph86%30.31 "Hg6 mi
2:00 am35 °FClear.5 mph85%30.31 "Hg6 mi
1:00 am35 °FClear.5 mph85%30.31 "Hg7 mi
12:00 am35 °FClear.5 mph84%30.31 "Hg8 mi
11:00 pm
Sat, Feb 18
36 °FClear.5 mph81%30.32 "Hg9 mi
10:00 pm36 °FClear.3 mph81%30.32 "Hg11 mi
9:00 pm35 °FClear.3 mph84%30.33 "Hg11 mi
8:00 pm35 °FClear.3 mph84%30.33 "Hg9 mi
Weather by CustomWeather, © 2017

See weather overviewHow to use our weather pages